sat.trackr.live / text

‹ back to catalog

STARLINK-3726

NORAD 52122 · 2022-029AL

PAYLOAD ACTIVE UNKNOWN

§ Identity

Operator
Country
US
Launch date
2022-03-19
Launch site
AFETR
Launch vehicle
Mass (kg)
RCS (m²)

Purposes: comms

External: N2YO · Heavens-Above · Gunter

§ Orbital elements

Epoch: 2026-05-25T03:54:50.982048Z

Period
95.44 min
Inclination
53.2124°
Eccentricity
0.0001423
Mean motion
15.08834856 rev/d
Perigee alt
538.8 km
Apogee alt
540.7 km
Semi-major
6,917.9 km
B*
4.2068e-5
RAAN
95.8187°
Arg perigee
85.2388°
Mean anomaly
274.8766°
Rev number
23,233

§ Raw data

STARLINK-37261 52122U 22029AL  26145.16309007  .00000382  00000+0  42068-4 0  99972 52122  53.2124  95.8187 0001423  85.2388 274.8766 15.08834856232334

JSON: /api/v1/satellites/52122 · /tle

For live sub-satellite position, see the globe view (requires WebGL).

§ Visibility from observer

Set your observer location to see the next 7 days of passes ≥ 10°. The values pass through the URL so the page stays shareable.

No JS? Fill the form by hand. The geolocation button needs JavaScript.